GFSNW_prec_radar_108.txt.gz
Reflectivity
-18 10 -20 -20 -19 -20 -20 -20 -20 -20 -20 9 11 -19 -20 -20 -20 -20 -0 -20 -20 -20 -20 -20 -20 -20 -20 -20 -20 -11 -20 -20 -20 -20 -20 -20 -20 28 22 7 -20 -20 -5 -20
-20 -20 -20 -20 -20 17 -20 -17 6 -20 -20 -20 9 12 -6 -4 -15 -20 -15 -17 -5 -20 -20 -20 -6 -20 -20 -20 -20 -20 -20 -20 -20 -20 -20 -20 10 8 4 4 27 -14 -2 -20
-20 -20 -20 -20 -20 17 -20 -20 -20 -20 -16 -10 -20 -20 -20 -20 -7 -20 -17 11 7 -19 -20 -20 -20 -14 -20 -20 -20 -20 -20 -20 -20 -20 -20 -20 -20 -13 -19 -20 -20 -20 -20 -20
-20 -20 -20 9 -20 3 2 1 -20 -20 -20 -12 -7 11 -18 -13 -18 -18 -12 -20 14 12 -20 -20 -20 -20 -20 -20 -20 -20 -20 -20 -20 -20 -20 -20 -20 -20 -20 -12 -20 -20 -20 -0
-20 -20 -20 -20 16 21 7 -20 -20 -19 -18 -20 -20 -16 -20 2 -19 14 0 -14 -20 -20 -7 -20 -20 -6 -15 -10 -20 -20 -20 -20 -20 -20 -20 -20 -20 -20 -20 -20 -20 -20 -20 -20
-20 10 -20 -10 -17 20 -11 -9 -18 -12 -20 -20 -17 -20 6 19 3 -20 -12 33 24 -11 8 -20 13 -20 -20 -20 -20 -20 -20 -20 -20 -20 -20 -20 -20 -20 -20 -20 -20 -20 -20 7
-16 21 -20 -20 19 -5 -20 -14 16 16 2 -20 -20 -20 9 17 15 -19 -3 -12 17 -19 -16 -20 -20 -20 -20 -20 -20 -20 -20 -16 -9 -20 -9 -20 -20 -20 -20 -20 -20 -20 -10 -20
-16 16 -20 -20 13 20 -20 -20 -12 -1 12 11 8 20 19 -20 -20 -20 -20 -18 -17 -20 -12 -20 -20 -20 -20 -20 -20 -20 -20 -20 -20 -20 -15 -20 -20 -20 15 -3 -20 -20 -4 -15
17 -20 -20 17 19 19 -20 -20 -18 26 12 -16 24 -20 -20 6 -20 -20 -20 -20 1 -17 -20 -20 -20 -20 -20 -20 -20 7 -1 -20 -20 3 -20 12 -16 15 15 20 16 24 18 -12
17 17 16 19 14 19 -19 -20 -20 22 16 -20 -20 -20 -20 -20 -20 -20 -19 -20 -20 -10 1 -20 -20 -20 -20 -16 5 13 20 -9 -15 -20 -11 -20 -20 5 5 21 24 17 1 -20
15 -20 15 20 20 20 -17 -20 -14 -2 13 -20 -20 -20 -20 -20 -20 -20 -20 -20 -3 -13 -6 -20 -20 -20 -1 -13 4 11 22 21 6 7 9 -12 -16 -16 12 22 -20 -13 -11 -20
-20 -20 -16 -16 -17 -20 22 5 -20 -20 15 -20 -20 -20 -20 -20 -20 -20 -20 -20 8 26 19 14 7 16 11 13 15 16 26 28 -9 -20 -20 -20 -20 18 26 -3 -20 -20 -20 -20
-20 -20 -20 -20 -20 -4 16 -8 2 -0 9 -13 -20 -20 -20 -20 -20 -20 -20 -20 -20 3 -14 -9 -20 -14 -20 -15 -12 12 32 22 20 12 -20 -20 22 -20 14 23 -20 -20 -20 -20
-20 -20 -8 -19 -15 6 17 8 -20 -17 0 15 -20 -20 -20 -20 -20 -20 -20 -20 -20 -20 -20 -20 -20 -8 -20 -14 -20 5 32 39 37 22 32 29 4 31 7 -20 -20 -20 -20 -20
-19 5 3 -9 16 15 13 -16 -20 -20 -20 -6 -20 -20 -20 -20 -20 -20 -20 -20 -20 -20 2 -7 -12 -14 -16 -20 -10 -3 24 15 18 26 29 29 21 -16 -20 -20 -20 -20 -20 -20
-20 -3 13 12 15 20 17 24 -20 -19 -20 20 -8 -20 -20 -20 -20 -20 -20 -20 -20 -20 -20 -4 5 -20 -13 -5 1 -17 -12 -5 -13 7 -16 -13 -20 -20 -20 -20 -20 9 -19 -20
12 15 17 6 27 21 20 -20 -20 -20 -20 25 -10 -20 -20 1 -20 -20 -20 -20 -20 -20 -13 -20 -20 -20 13 -20 -17 15 -6 -20 -20 -20 -13 7 -14 -20 -20 -18 -20 -20 -20 -20
24 29 30 29 29 26 2 -16 5 -3 -4 -12 -20 -20 -20 -20 -20 -20 -20 14 22 23 18 7 -8 -11 -20 -11 -1 -20 -20 -20 -20 -11 -3 -20 -20 -20 -5 14 5 -9 -20 -20
32 35 34 32 33 31 5 -14 28 1 -14 -20 -18 -20 -18 -20 10 -3 28 13 11 11 1 4 2 -20 15 6 -20 -20 -20 -20 -20 -20 -20 -20 -20 -20 -20 -20 -20 -20 -20 -20
33 38 35 17 19 15 -20 -15 28 36 30 34 -12 -20 -20 -12 -20 -19 19 15 -20 10 -20 -19 7 -17 11 4 -16 -20 -20 -20 -20 -20 -20 -20 -20 -20 -20 -20 -20 -20 -20 -20
34 27 19 -13 7 5 18 5 -1 -20 -15 -9 -20 -20 -20 -20 -20 -20 3 -14 -20 -20 -20 -20 -20 8 3 -17 -16 -20 -20 -20 -20 -20 -20 -20 -20 -20 -20 -20 -20 -20 -20 -20
8 -0 23 16 -2 17 -9 17 -2 -14 -20 -20 -20 -20 -20 -20 -20 -20 -1 -20 -20 -20 -5 10 -7 -1 -19 -20 -20 -20 -20 -20 -20 -20 -20 -20 -20 -20 -20 -20 -20 -20 -17 -13
13 19 20 -18 -16 8 -8 8 -19 -20 -20 -20 -20 -20 -20 -20 -20 7 -19 -20 -20 -20 -20 -20 -19 -18 -20 -20 -20 -20 -20 -20 -20 -20 -20 -20 -20 -20 -20 -18 -20 -12 -2 -9
20 13 7 -17 -16 -20 -20 -20 -20 -20 -20 -20 -20 -20 19 -20 -20 -20 -20 -20 -20 -20 -20 -20 -19 -20 -20 -20 -20 -20 -20 -20 -20 -20 -20 -20 -20 -20 -20 -20 -20 -19 -14 -13
19 -14 -20 -20 -20 -20 -19 -20 -20 -20 -20 -20 -20 -20 -20 -20 -20 -20 -20 -12 -20 -20 -20 -20 -20 -20 -20 -20 -20 -20 -20 -20 -20 -20 -20 -20 -20 -20 -20 -20 -20 -20 -18 -12
-5 -20 -20 -18 -20 -20 -20 -20 -20 -20 -20 -20 -20 -20 -20 -20 -20 -20 -20 -20 -20 -20 -20 -20 -20 -20 -20 -20 -20 -20 -20 -20 -20 -20 -20 -20 -20 -20 -20 -20 -20 -20 -20 -18
-20 -20 -18 -19 -20 -17 -17 -20 -20 -20 -20 -20 -17 -20 -20 -20 -20 -18 -20 -20 -20 -20 -20 -20 -20 -20 -20 -20 -20 -20 -20 -20 -20 -20 -20 -20 -20 -20 -20 -20 -20 -19 -18 -19

GFSNW_prec_radar_111.txt.gz
Reflectivity
-20 -20 -20 -20 -20 -19 -20 -20 -20 -20 -20 -17 6 -19 -20 -20 -20 -20 -20 -20 -20 -20 -20 -20 -20 -20 13 7 5 -5 -20 -20 -20 -20 -20 -20 -20 -20 -20 -9 8 -20 -20 -20
-20 -20 -20 -20 -20 9 -20 -20 -20 -20 -20 -20 -20 -20 1 -7 -20 -20 -1 -20 -20 -20 -20 3 -20 -20 6 -2 14 5 -16 4 -20 -20 -20 -20 -20 -20 -20 -20 -16 -11 15 -18
7 -20 -20 -20 -20 16 -20 -20 -20 -20 -20 -20 -4 -16 -20 -17 -20 -19 -20 -20 -20 -20 -20 6 -15 -20 -19 13 13 4 1 5 -20 -20 -20 -20 -20 -20 -20 -20 -20 -20 -0 -19
-20 -20 -20 -20 -14 17 -20 -20 -20 -20 -20 -14 0 -14 -20 -20 -20 -20 -20 -20 1 11 17 15 -20 -20 -20 -20 4 10 -11 -20 -20 -20 -20 -20 -20 -20 -20 -20 -20 -20 -20 -20
-20 -20 -20 -20 -8 -5 -13 -20 -20 -20 -20 -20 -20 -20 -20 -20 -20 7 -20 15 -5 -20 26 1 -20 -20 -20 -20 -20 -20 -1 -14 -20 -20 -20 -20 -20 -20 -20 -20 -20 -20 -20 -20
-20 -20 -20 -20 -8 8 -17 -6 -10 -13 -20 -20 -20 -20 -20 -2 31 6 3 22 13 18 -20 -17 -20 -20 -20 -20 -20 -20 -20 -20 -20 -20 -20 -20 -20 -20 -20 -20 -20 -20 -20 -20
-20 -20 -3 -20 4 -20 -20 -20 7 6 -3 -19 -10 -18 -10 13 10 -2 -6 13 -1 -3 3 -20 -20 -20 -20 -20 -20 -20 -20 -20 -20 -20 -20 -20 -20 -20 -20 -20 -20 -20 -20 -20
-20 -20 12 1 -20 -17 -20 -20 -20 -20 -20 -20 -20 22 15 -20 -17 -20 -20 -20 -20 -20 -20 -20 -20 -20 -20 -20 -20 -20 -20 -20 -20 -20 -20 -20 -20 -20 -20 -13 -20 -20 -20 -11
-20 -20 17 -18 -16 3 -20 -20 -20 -1 -2 -20 -1 10 -20 -13 -20 -20 -20 -20 -20 21 -20 -20 -20 -20 -20 -20 -20 -20 -20 7 7 -20 -20 -20 -20 -17 -20 -20 15 20 4 23
-16 -20 -20 17 15 15 -20 -20 -20 -2 10 -20 -20 -14 -3 -20 -3 -20 -20 -20 -20 -18 -8 -20 -20 -20 -20 -20 -19 -20 6 -16 14 3 -20 -20 -20 1 -19 -18 36 17 3 2
6 -20 -10 18 13 14 -10 -20 -20 -8 4 -20 -20 -20 -20 -20 -20 -15 -20 -20 -20 -20 12 -7 -20 6 6 7 -5 16 18 29 17 18 -9 -20 -19 -20 9 12 -2 12 17 -12
-20 -20 -15 7 9 21 22 -12 -20 -2 9 -20 -20 -20 -20 -20 -20 -20 -20 -20 -20 -19 -20 -9 -9 -4 10 -12 11 20 24 20 13 -16 -20 -18 -20 22 27 34 -20 -20 -20 -20
-20 -11 8 -20 -5 16 13 -20 -10 24 29 -20 -20 -20 -20 -20 -20 -20 1 -20 -20 3 -20 -20 -20 -17 -20 -11 14 15 26 31 31 9 -20 -19 -20 18 9 32 21 -2 -20 18
-20 -7 -3 -20 -20 -13 19 7 -20 -4 11 6 -20 -20 -20 -20 -20 -20 -20 -20 -20 -10 -20 -8 -20 -20 -20 9 8 18 31 28 5 31 28 22 -3 -20 -20 -20 -7 -20 -20 -20
-20 -20 -20 -20 9 20 8 11 -0 -9 -16 -3 -20 -20 -20 -20 -20 -20 -20 -20 -20 -20 -1 9 2 -20 -20 -20 2 13 25 14 22 16 27 25 17 20 -5 6 15 9 12 6
-20 -7 -20 -11 -7 10 23 26 -9 14 -20 23 -20 -20 -20 -20 -20 -20 -20 -20 -20 -20 -19 -10 -2 -20 8 4 8 -19 -20 -19 9 13 11 18 18 17 16 17 -20 -19 -20 -20
-20 -20 -20 13 14 10 35 -9 -20 -20 -2 23 -20 -20 -20 -20 -20 -20 -20 -20 -20 -20 -12 -2 -20 -20 8 -20 -20 -20 -20 -20 -20 -20 -18 5 15 11 2 31 30 0 -17 -20
3 -2 19 15 9 17 37 -17 -1 -19 -7 -19 -20 -20 -20 -20 -20 -20 -17 -9 -14 6 -4 19 16 -15 24 -3 8 -18 -20 -12 9 -12 -2 -20 -20 -20 -15 -8 -7 -20 -20 -20
17 31 30 32 31 34 20 -5 -11 -15 -20 -20 -20 -19 -20 -20 8 8 22 26 9 14 7 -6 24 4 11 4 -20 -20 -20 -20 -20 -20 -20 -20 -20 -20 -20 -20 -20 -20 -20 -20
36 38 43 24 20 11 18 26 22 28 29 20 -20 -20 -20 -10 -6 6 -19 36 -17 -0 1 -17 -20 -15 2 -4 -20 -20 -20 -20 -20 -20 -20 -20 -20 -20 -20 -20 -20 -20 -20 -20
40 26 24 3 7 14 28 -20 -13 12 9 -20 -20 -20 -20 -20 12 -6 -20 2 -3 -19 -20 -20 -14 1 1 -15 -9 -20 -20 -20 -20 -20 -20 -20 -8 -20 -20 -20 -20 -20 -20 -20
26 3 16 26 26 20 -11 -18 -20 -10 -20 -20 -20 -20 -20 -20 -20 -20 -19 -20 -20 -20 -3 7 -6 -6 -20 -20 -20 -20 -20 -20 -20 -20 -20 -20 -20 -20 -20 -20 -20 -20 -19 -11
23 25 27 18 -19 -16 -18 -20 -20 -20 -20 -20 -20 -4 -20 17 -19 -20 -20 -20 -20 -20 -20 -20 -20 -20 -20 -20 -20 -20 -20 -20 -20 -20 -20 -20 -20 -20 -20 -20 -20 -20 -19 -18
25 13 17 -3 -16 -20 -20 -20 -20 -20 -20 -20 -20 -20 -20 -20 -6 -14 -20 -20 -20 -15 -20 -20 -20 -20 -20 -20 -20 -20 -20 -20 -20 -20 -20 -20 -20 -20 -20 -20 -20 -20 -20 -20
15 -20 -20 -20 -20 -20 -20 -20 -20 -3 -20 -20 -20 -20 -20 -20 -20 -20 -20 -20 -20 -20 -20 -20 -20 -20 -20 -20 -20 -20 -20 -20 -20 -20 -20 -20 -20 -20 -20 -20 -20 -20 -20 -20
4 -20 -20 -20 -20 -20 -20 -20 -20 -20 -10 -20 -20 -20 -20 -20 -20 -20 -20 -20 -20 -20 -20 -20 -20 -20 -20 -20 -20 -20 -20 -20 -20 -20 -20 -20 -20 -20 -20 -20 -20 -20 -20 -20
-17 -20 -18 -20 -17 -19 -19 -19 -19 -20 -20 -20 -20 -20 -20 -20 -20 -20 -20 -20 -20 -20 -20 -20 -20 -20 -20 -20 -20 -20 -20 -20 -20 -20 -20 -20 -20 -20 -20 -20 -20 -20 -20 -20

GFSNW_prec_radar_114.txt.gz
Reflectivity
-20 -20 -18 -20 -20 -20 -20 -20 -20 -20 -20 -20 -7 -20 -20 -3 -20 -20 -20 -20 -20 -20 -20 -20 -20 -20 -20 -20 -20 1 -16 -20 -20 2 -20 -20 -20 -20 -20 -20 -20 -20 -20 -20
-20 -20 -16 -20 -20 -20 -20 -20 -20 -20 -20 -20 -20 -20 -20 -20 -20 -20 8 1 -20 -20 -20 -7 -20 -20 -20 -20 -20 -20 7 3 -20 -16 -4 -10 -20 -20 -20 -20 -20 -20 -20 -20
-12 -6 -20 -20 -13 -20 -20 -20 -20 -20 -12 -20 -19 -16 -20 -1 -20 -20 -20 -20 -20 -20 -20 -20 -15 -20 -5 -20 -20 -20 -13 -12 -6 -20 10 -3 -3 -20 -20 -20 -20 -20 -20 -20
-12 -20 -20 -20 -9 -20 -20 -20 -20 -20 -20 -20 -14 -20 -20 -20 -20 -8 -20 -20 -20 -15 -19 8 -17 -14 -20 -20 -20 -20 -20 -20 -16 -20 -8 -19 -20 -15 -20 -20 -20 -20 -20 -20
-20 -20 -20 -20 3 -20 -20 -20 -20 -4 -20 -20 -20 -20 -20 -20 -20 5 -18 11 -20 15 1 -13 26 5 16 -20 -20 -20 -20 -20 -20 -20 -7 -6 -20 -20 -20 -20 -20 -20 -20 -20
-6 -20 -20 7 -10 -16 -18 -20 -20 -14 -20 -20 -18 -20 -20 -20 -8 -8 30 13 10 6 13 24 -4 -20 -13 21 -20 12 -20 -20 -20 -20 -20 -20 -20 -20 -20 -20 -20 -20 -20 -20
-20 -20 -20 7 4 -20 -20 -20 -20 -20 -20 -20 -20 -20 -16 20 7 18 11 17 5 0 -20 -2 -20 -20 -20 -20 -20 -20 -20 -12 -20 -20 -20 -20 -20 -20 -20 -20 -20 -20 -20 -20
-20 -20 -20 -18 9 -18 -20 -20 -20 -20 -20 -20 -20 -20 10 -5 -17 -20 -20 -20 -20 -20 -20 -20 -20 -20 -20 -20 -20 -20 -20 -20 -20 -20 -20 -20 -20 -20 -20 -20 -20 -20 -20 -20
-20 -20 -20 -20 -10 4 -20 -20 -20 -10 -20 -20 -20 -6 -12 -20 -20 -20 -20 -20 -20 -20 -20 -20 -20 -20 -20 -20 -20 -20 -20 -20 -20 -20 -20 -20 -20 -20 -20 -20 -20 -17 5 12
-19 -20 -20 -20 8 15 -20 -20 -20 -7 -2 -20 -20 -5 -20 -19 -20 -20 -20 -20 -20 -20 -20 -20 -20 -19 -20 -20 -15 -1 13 19 14 11 11 -20 -20 -20 -20 -9 5 39 13 7
5 -20 -20 -19 -20 7 -20 -20 -20 -20 -20 -20 -20 -20 -20 -20 -20 -20 -20 -20 -20 -20 -20 -20 -20 -1 7 19 -0 14 19 10 4 5 -1 -20 -20 15 17 -15 16 28 31 27
8 -19 -20 -18 10 -4 2 11 -20 -20 12 -20 -20 -20 -20 -20 -20 -20 -20 -20 7 -20 -20 -20 -20 -19 -2 -6 9 25 18 22 19 2 -20 -20 -20 -11 -2 -3 28 -1 -20 -18
12 -20 -20 -14 -20 -5 17 24 -8 13 22 -0 -17 -20 -20 -20 -20 -20 -20 -20 -17 -16 -14 6 -9 -20 -20 -9 4 10 19 32 23 -13 6 -20 -20 -20 -6 25 37 4 1 8
-20 -20 -20 -20 0 7 -14 22 -7 7 7 -15 -20 -20 -20 -20 -20 -20 -20 -20 -20 -20 -1 8 11 -20 -20 -15 -18 17 12 21 14 21 18 -2 -12 -15 -20 -6 1 -20 -18 -20
-10 13 -20 17 -20 -13 19 8 6 -2 -15 -10 -20 -20 -20 -20 -20 -20 -20 -20 -20 -20 -20 -20 9 -12 -20 -20 -20 -12 -11 16 18 18 30 36 29 37 26 3 25 19 -13 -20
-19 -20 -20 -20 -20 19 13 29 -20 -20 -1 20 -20 -20 -20 -20 -20 -20 -20 -20 -20 -20 -20 -20 -20 -20 14 -4 10 -19 -20 12 27 33 20 35 41 39 26 25 23 20 18 28
15 10 -20 9 7 7 17 21 -17 -20 6 22 -20 -20 -20 -20 -20 -20 -20 -20 -20 -20 0 -18 -20 -20 16 -16 -20 -20 -20 -20 27 14 -8 -20 -20 -9 -20 -16 8 25 2 -19
-20 -20 -8 19 17 18 20 5 16 -10 15 1 -20 -20 -20 -20 -20 -20 -20 -19 -15 11 -17 20 0 -0 5 -3 -20 -20 -20 -20 -20 -20 -19 -20 -20 -20 -20 -20 -20 -19 -20 -20
13 -0 19 28 29 30 11 -5 31 6 -15 -20 -20 -20 -20 -20 -17 -16 21 29 15 4 3 9 20 -17 7 -10 -20 -20 -20 -14 -20 -20 -20 -20 -20 -20 -20 -20 -20 -20 -20 -20
-9 29 41 21 12 -2 7 40 28 23 24 23 -19 -20 -20 -20 -18 36 -16 9 18 -1 -2 9 2 3 -4 -5 -20 -20 -20 -20 -20 -20 -20 -20 -20 -20 -20 -20 -20 -20 -20 -20
34 27 2 -17 16 6 33 8 -7 10 14 -17 -11 -20 -20 -20 -20 1 -15 13 16 -10 -20 3 -20 -10 -3 -20 -12 -20 -20 -20 -20 -20 -20 -20 -9 -10 -20 -20 -20 -20 -18 -18
29 8 15 29 29 19 8 -19 -20 -20 -20 -20 -20 -20 -20 -20 -20 -10 -11 -17 -18 -20 -20 -9 -20 -18 -20 -20 -20 -20 -20 -20 -20 -20 -20 -20 -20 -20 -20 -20 -20 -20 -20 -20
33 30 28 24 13 5 -20 -20 -20 -20 -20 -20 -20 -9 -20 -20 -20 -19 -20 -20 -20 -20 -20 -18 -20 -20 -20 -20 -20 -20 -20 -20 -20 -20 -20 -20 -20 -20 -20 -20 -20 -20 -20 -20
29 12 22 -20 -15 -20 -20 -20 -20 -20 -20 -20 -20 -20 -20 -17 -13 -13 -3 -20 -20 -2 -20 -20 -20 -20 -20 -20 -20 -20 -20 -20 -20 -20 -20 -20 -20 -20 -20 -20 -20 -20 -20 -20
20 -12 -20 -20 -20 -20 -20 -19 -20 -20 -20 -20 -20 -20 -20 -20 -1 -19 -20 -20 -20 -20 -20 -20 -20 -20 -20 -20 -20 -20 -20 -20 -20 -20 -20 -20 -20 -20 -20 -20 -20 -20 -20 -20
-10 -20 -20 -20 -20 -20 -20 -20 -20 -20 -20 -20 0 -11 15 -20 -20 -20 -20 -20 -20 -20 -20 -20 -20 -20 -20 -20 -20 -20 -20 -20 -20 -20 -20 -20 -20 -20 -20 -20 -20 -20 -20 -20
-20 -20 -20 -20 -5 -4 -20 -20 -20 -20 -20 -10 -20 -20 -20 -20 -20 -20 -20 -20 -20 -20 -20 -20 -20 -20 -20 -20 -20 -20 -20 -20 -20 -20 -20 -20 -20 -20 -20 -20 -20 -20 -20 -20

GFSNW_prec_radar_117.txt.gz
Reflectivity
-20 -19 -14 -20 -20 -20 -20 -20 -20 -20 -20 -20 -20 -20 -20 -9 -20 -20 -20 -20 -20 -20 -20 -20 -20 -20 -20 -20 -20 -20 -20 -20 -20 -20 -17 6 7 8 13 11 -17 -20 -20 -20
-20 -20 -20 -20 -20 -20 -20 -20 -20 -20 -20 -20 -20 -20 -20 -20 -20 -20 -7 2 -20 2 -20 -1 -20 -20 -20 -20 -20 -20 -20 -20 -20 -20 6 -3 1 -0 -13 -20 -15 -20 -20 -20
-20 -20 -20 -20 -20 -20 -20 -20 -20 -20 -20 -20 -20 -10 -20 -20 -20 -20 -20 -20 -20 -20 -20 -20 -18 -20 -20 -20 -20 -20 -9 -20 -20 -20 -6 -4 2 -5 -10 -20 -20 -20 -20 -20
-18 -6 -20 -20 -20 -20 -20 -20 -20 -20 -20 -20 -20 -20 -20 -20 -20 -20 -20 -20 -18 5 17 -2 -20 -20 -20 -20 -20 -20 6 -17 -20 -19 -13 3 -20 -20 -20 -20 -20 -20 -20 -20
2 -20 -20 -20 -1 -20 -20 -20 -20 -20 -20 -20 -20 -20 -20 -20 -20 -19 -20 4 1 -20 2 16 6 18 -14 -20 -20 -20 -20 -20 12 -20 -20 -20 -20 -20 -20 -20 -20 -20 -20 -20
-20 -20 -20 -11 -20 -20 -20 -20 -20 -20 -20 -20 -20 -20 -20 -20 3 -17 -18 26 6 10 13 -14 -20 -20 -20 -20 -20 -20 2 -12 -16 -20 -20 -20 -20 -20 -20 -20 -20 -20 -20 -20
-20 -20 -20 -6 -20 -20 -20 -20 -20 -20 -20 -20 -20 -20 -20 -20 -20 4 -20 -4 -20 -20 -20 -20 -20 -20 -20 -20 -20 -20 -20 -8 -7 -20 -20 -13 -20 -20 -20 -20 -20 -20 -20 -20
-20 -20 -20 3 8 -20 -20 -20 -20 -20 -20 -20 -20 -20 -20 -20 -20 -20 -20 -20 -20 -20 -20 -20 -20 -20 -20 -20 -20 -20 -20 -20 3 7 -20 -20 -20 -20 -20 -20 -20 -20 -20 -20
-20 -20 -20 -18 5 -12 -20 -20 -20 -20 -20 -20 -20 -20 -20 4 -20 -20 -20 -20 -20 -20 -20 -20 -20 -20 -20 -20 -20 -18 -19 -19 -18 -20 -2 -20 3 -19 -20 -11 -20 -20 -20 -18
-20 -20 -20 -20 16 -0 -20 -20 -20 -20 -20 -20 -20 -20 -18 -20 -20 -20 -20 -20 -20 -20 -20 -20 -6 -14 -20 2 15 11 21 22 15 -1 14 -4 -6 -20 -20 -20 -20 -19 36 40
-20 -20 -20 -20 1 16 -20 -20 -20 -20 -20 -20 -20 -20 -20 -20 -20 -15 -20 -20 -20 -20 -20 -11 -20 5 -20 -7 17 18 23 15 18 10 18 -7 -20 23 18 15 -20 27 39 35
6 9 11 -20 12 16 -20 -4 -20 -16 -6 -20 -20 -20 -20 -20 -20 -20 -20 -7 -13 -20 -20 -20 -20 -20 -15 12 7 17 21 24 21 14 -20 -20 -20 -20 -20 -2 14 26 1 24
-20 -2 -16 4 -20 18 -19 -6 -13 8 23 -3 -19 -20 -20 -20 -20 -20 -20 -20 -20 0 9 27 -10 -16 -20 0 -1 13 9 16 20 18 13 13 -20 -15 -20 5 18 13 -20 -20
-5 13 11 11 -15 17 8 -20 -7 1 11 2 -20 -20 -20 -20 -20 -20 -20 -20 -20 -20 -17 -16 -3 5 -20 -20 -7 -12 13 18 15 8 38 31 29 26 -3 9 -20 -6 -10 -15
-20 15 -10 3 -11 20 -16 -12 4 -13 -20 -7 -20 -20 -20 -20 -20 -20 -20 -20 -20 -20 -20 -14 -14 -13 5 -20 -20 6 4 7 22 23 29 32 33 42 39 28 17 4 -12 -20
15 18 11 -20 19 17 -19 -6 -19 -20 4 8 -9 -20 -20 -20 -20 -20 -20 -20 -20 -20 -19 -20 -20 -20 -0 8 11 -20 -20 17 26 24 39 32 35 31 18 7 20 24 -3 11
11 15 -20 -20 2 -9 -20 -20 -2 13 -10 23 -20 -20 -20 -20 -20 -20 -20 -20 -20 -20 -19 -2 -10 -20 17 -13 -8 -20 -20 -20 -9 -20 -8 7 -20 10 3 -16 -20 -1 -20 -6
14 17 -13 -0 18 3 4 -20 -5 3 13 8 -20 -20 -20 -20 -20 -20 -20 -20 -3 7 0 4 0 -1 2 -5 -20 -20 -20 -20 -20 -20 -20 -10 -14 1 -8 -19 -20 -20 -20 -20
6 -9 14 22 16 17 4 -20 -19 34 -3 -20 -20 -16 -20 -20 -3 12 16 17 3 3 -3 1 13 -20 13 -12 -20 -20 -20 -20 -20 -20 -20 -20 -20 -15 -7 -20 -20 -20 -20 -20
-7 10 20 9 8 -12 -1 11 11 25 26 23 -20 -20 -20 -20 -20 5 -12 20 13 7 -2 25 -1 -18 -19 -3 -20 -20 -20 -20 -20 -20 -20 -20 -20 -6 -20 -3 -20 -20 -20 -20
10 13 6 -20 -3 14 9 15 15 -13 -1 -20 -20 -20 -20 -20 -20 -20 -19 -0 14 7 10 16 6 -20 -13 -15 -13 -20 -20 -20 -20 -20 -20 -20 -10 -6 -20 -20 -20 -20 -20 -20
-12 28 -2 28 28 19 -7 -3 -7 -20 -20 -20 -20 -20 -20 -20 -20 -6 -20 4 -8 -20 -19 -11 -12 -19 -16 -20 -20 -10 -20 -20 -20 -20 -20 -20 -20 -20 -20 -20 -20 -20 -20 -20
27 32 14 12 10 3 -20 -20 -20 -20 -20 -20 -15 -20 -20 -20 -20 -20 -20 -17 -20 -20 -20 -19 -20 -20 -20 -20 -20 -20 -20 -20 -20 -20 -20 -20 -20 -20 -20 -20 -20 -20 -20 -20
26 23 15 4 -13 -20 -20 -20 -20 -20 -20 -20 -20 -20 -20 -13 -20 -20 -20 -20 -20 -20 -20 -20 -20 -20 -20 -20 -20 -20 -20 -20 -20 -20 -20 -20 -20 -20 -20 -20 -20 -20 -20 -20
28 -1 -20 -20 -20 -20 -20 -20 -20 -20 -20 -20 -20 -20 -20 -19 -9 -19 -20 -20 -20 -20 -20 -20 -20 -20 -20 -20 -20 -20 -20 -20 -20 -20 -20 -20 -20 -20 -20 -20 -20 -20 -20 -20
28 -19 -11 -20 -20 -20 -20 -20 -20 -20 -20 -20 -20 -16 -8 -17 -20 -16 -20 -20 -20 -20 -20 -20 -20 -20 -20 -20 -20 -20 -20 -20 -20 -20 -20 -20 -20 -20 -20 -20 -20 -20 -20 -20
9 -20 -20 -20 -6 -12 -20 -20 -20 -20 -20 -20 -20 -12 -20 -20 -20 -20 -20 -20 -20 -20 -20 -20 -20 -20 -20 -20 -20 -20 -20 -20 -20 -20 -20 -20 -20 -20 -20 -20 -20 -20 -20 -20

GFSNW_prec_radar_123.txt.gz
Reflectivity
-0 -5 -20 -20 -20 -20 -20 -20 -11 -20 -20 -20 -20 -20 -20 -20 -20 -20 -20 -20 -20 -20 -20 -20 -20 -20 -20 -8 -20 -20 -18 3 -20 -20 14 -10 -18 13 32 28 9 -13 -15 11
-3 -19 -20 -20 -20 -20 -20 -20 -20 -20 -20 -20 -20 -20 -20 -20 -20 -20 -20 -20 -20 -20 -20 -2 -20 -20 -16 -20 -20 -11 15 6 19 -12 -19 16 19 -8 2 26 33 18 19 17
-20 -20 -20 -20 -20 -20 -20 -20 -20 -20 -20 -20 -20 -20 -20 -20 -20 -20 -20 -20 -20 15 18 -12 6 -1 -6 8 -20 -20 -15 -20 14 15 11 17 15 -11 13 -4 9 11 29 18
-20 -20 -20 -20 -20 -20 -20 3 -20 -20 -20 -20 -20 -20 -20 -20 -20 -20 -20 -20 20 15 13 16 18 12 18 -20 -20 -20 -17 15 20 -20 -20 -10 -18 4 0 -2 -14 -7 11 22
-20 -20 -20 -20 -20 -20 -20 -7 -20 -20 -20 -20 -20 -20 -20 -20 -16 -20 -9 14 10 15 18 14 4 5 -4 19 20 23 14 20 -5 -20 -20 -20 -20 -20 5 -19 -8 1 -8 -20
1 -20 -20 -20 -20 -20 -20 -20 -20 -20 -20 -20 -20 -20 -20 -20 -2 -10 -20 -3 12 11 1 -20 -20 -20 -20 -11 6 17 22 20 17 17 -14 -11 -14 -20 -20 -20 -15 -9 -8 3
-20 -20 -20 -20 -20 -20 -20 -20 -20 -7 -20 -20 -20 -20 -20 -18 -4 4 -20 -20 -7 -20 -20 -20 -20 -20 -20 -20 -20 -3 20 21 17 17 6 17 4 -16 -20 -16 -18 -20 -20 -20
-20 -20 -20 -20 -20 -20 -20 -20 -20 -18 -19 -20 -20 -20 -20 -20 -20 2 -20 -20 -20 -20 -20 -4 -10 -19 10 -2 18 -14 -15 8 11 16 10 -7 -18 20 -20 -20 -20 -20 -20 -20
-20 -20 -20 -20 -20 -20 -20 -18 -20 -20 -17 -20 -20 -20 -20 -16 -20 -17 -20 -20 -20 -20 -16 16 20 20 13 16 -17 8 13 19 14 16 21 15 11 -6 -10 -20 0 20 4 -18
-20 -20 -20 -20 -20 -20 -20 -14 -20 -16 1 -20 -20 -13 3 -20 -11 -7 -20 -20 -20 -20 -2 8 17 12 -20 13 9 -12 -4 3 23 14 19 14 25 -9 -20 20 28 22 -20 -2
-20 -20 -20 -20 -20 -20 -20 -0 -20 -2 -1 -1 -20 -20 -20 -11 -20 -5 -15 -13 -2 3 -12 10 16 17 16 11 3 14 16 13 19 20 19 28 14 -15 27 28 14 -2 26 29
15 -9 -20 -20 -20 -20 -18 7 2 -11 7 -4 -20 -20 -20 -20 -20 -20 -20 -18 -19 6 13 16 8 16 13 4 15 13 17 20 23 24 19 27 15 11 12 6 8 13 29 36
-13 -15 -20 -20 -20 -20 -20 -19 -0 7 -7 -19 -19 -19 -20 -20 -20 -20 -20 -20 -20 3 17 17 17 9 6 11 8 14 16 25 21 21 16 18 26 22 27 33 34 29 28 11
-16 6 1 -20 -20 -20 -13 14 8 8 10 5 3 -20 -20 -20 -20 -20 -20 -20 -20 -20 -18 16 11 11 -2 4 -14 9 17 21 6 20 1 5 18 16 27 29 24 28 28 10
4 5 -20 -20 -20 -2 5 19 19 8 5 14 -16 -20 -20 -20 -20 -20 -20 -12 6 5 15 14 12 7 1 6 -7 24 -2 -2 11 7 -8 7 12 5 -17 13 -3 -1 -3 -16
-10 -20 -20 -20 -20 20 16 -2 -19 4 -7 14 3 -20 -20 -20 -20 -20 -20 -14 6 4 -2 8 8 -20 9 15 8 6 -14 6 -3 4 -20 -20 -9 -0 -16 -2 -6 -20 -20 -20
-20 -20 -20 -18 11 -3 18 16 -4 -19 16 15 10 7 -20 -20 -20 -3 -20 1 4 1 8 -7 3 0 11 12 8 16 -20 -20 -13 -20 -20 6 -20 -9 -15 -16 -19 -4 -20 -20
2 -20 -0 15 -20 16 3 11 -20 -1 12 6 3 4 -10 -20 16 15 -13 -20 -20 1 6 6 10 12 16 14 -14 -20 -20 -20 -20 -20 -20 -20 -20 -20 -20 -20 -20 -20 -17 -12
9 13 14 19 17 18 18 -20 -20 6 -0 19 -7 7 13 -20 19 23 18 15 7 5 13 7 10 18 17 -3 -20 -20 -20 -20 -20 -20 -20 -20 -20 -20 -20 -20 -20 -20 -20 -11
16 17 17 8 -17 -20 -19 17 20 20 15 7 7 -19 8 -15 15 21 -1 1 13 20 8 -6 16 13 -20 -20 -20 -20 -20 -20 -20 -20 -20 -20 -20 -20 -20 -20 -20 -20 -14 -4
23 21 -18 15 -20 16 21 16 17 -3 14 8 -5 -20 4 -20 -2 9 4 16 17 18 25 16 21 18 -5 -20 -20 -20 -20 -20 -20 -20 -20 -20 -20 -20 -20 -20 -20 -20 -4 -2
9 9 -13 16 13 16 11 13 14 13 2 0 1 6 -11 8 -20 9 -11 -4 6 13 -0 3 20 -4 -20 -20 -20 -20 -20 -20 -20 -20 -20 -20 -20 -20 -20 -20 -20 -20 -10 -12
1 2 -1 13 -14 19 4 8 11 4 -20 2 0 -1 -17 6 4 13 6 7 6 -11 7 10 -19 -18 -20 -20 -20 -20 -20 -20 -20 -20 -20 -20 -20 -20 -20 -20 -20 -3 -8 -6
14 8 18 9 5 0 -2 -0 -17 -5 -20 -2 2 -19 -4 10 2 9 7 1 -8 17 6 13 -17 -20 -20 -20 -20 -20 -20 -20 -20 -20 -20 -20 -20 -20 -20 -20 -5 -7 -3 -5
-3 18 15 -20 8 14 10 -5 -9 -16 -2 2 -1 5 18 10 0 3 9 15 10 16 14 -1 -18 -19 -20 -20 -20 -20 -20 -20 -20 -20 -20 -20 -20 -20 -20 -20 -3 -3 -3 -3
14 18 21 -2 6 3 6 9 10 -18 11 21 21 -8 -1 19 1 20 11 17 15 2 -1 -9 -15 -20 -20 -20 -20 -20 -20 -20 -20 -9 -20 -20 -20 -20 -14 -6 -13 -12 1 -5
15 15 -2 -18 -2 3 -3 10 5 -20 8 13 8 -3 -5 -3 20 14 -17 10 -4 -5 -2 -20 -20 -20 -19 -4 -6 -20 -20 -4 -1 -2 -4 -4 -18 -20 3 -4 2 -2 0 -2